Cloud_Cover
100 100 100 100 100 100 92 100 100 100 100 100 100 100 100 100 100 94 24 40 38 41 28 4 5 4 1 5 0 0 93 100
94 100 100 100 100 100 100 100 100 100 100 100 100 100 100 100 100 95 100 100 100 24 100 96 5 5 3 11 42 99 100 83
100 100 100 100 100 100 100 100 100 100 100 100 100 100 100 100 100 100 100 100 100 93 96 100 37 64 100 100 96 24 5 80
100 100 100 100 100 100 100 100 100 100 100 100 100 100 100 100 100 97 100 100 99 98 100 97 100 100 100 85 100 66 94 96
100 100 100 100 100 100 100 100 100 100 100 100 100 100 100 100 100 100 100 100 99 100 99 66 100 67 88 100 87 42 8 5
100 100 100 100 100 100 100 100 100 100 100 100 100 100 100 100 100 100 100 100 100 98 100 100 100 100 17 6 96 100 7 99
100 100 100 100 100 100 100 100 100 100 100 100 100 100 100 100 100 100 100 100 100 100 90 10 28 93 13 100 98 100 100 48
100 100 100 100 100 100 100 100 100 100 100 100 100 100 100 100 100 100 100 100 100 100 100 100 98 100 100 57 87 87 91 22
100 100 100 100 100 100 100 100 100 100 100 100 100 100 100 100 100 100 100 100 71 100 100 100 100 100 100 100 95 98 21 5
100 100 100 100 100 100 100 100 100 100 100 100 100 100 100 100 100 100 100 100 100 100 100 100 99 92 100 72 19 21 2 0
100 100 100 100 100 100 100 100 100 100 100 100 100 96 100 100 100 100 100 100 100 100 100 59 62 28 8 3 0 0 0 0
100 74 96 75 18 80 100 100 100 100 100 78 96 100 100 100 100 100 76 100 86 96 72 32 7 2 0 0 0 0 0 0
87 36 100 100 100 100 100 96 33 59 100 100 76 100 89 100 100 90 35 48 5 17 11 0 0 1 0 0 5 5 2 0
100 100 96 100 100 100 97 100 100 100 100 92 88 66 30 54 15 26 22 5 6 0 5 5 5 5 72 48 1 0 0 0
100 100 100 100 100 100 100 82 55 82 42 9 40 6 5 16 72 14 3 0 2 5 60 80 94 25 27 5 19 5 5 5
100 100 100 99 61 41 23 24 49 7 5 5 5 12 40 10 5 5 5 14 5 90 97 100 95 5 22 5 48 28 5 5
49 17 78 99 21 16 93 70 5 44 49 20 96 75 60 5 7 5 59 52 41 100 100 100 93 20 69 5 82 71 5 5
18 67 93 25 7 100 100 5 10 46 12 5 82 79 94 49 5 8 91 100 100 56 95 53 74 15 5 5 16 22 5 5
5 5 29 7 87 100 100 40 45 98 100 89 46 94 97 100 91 76 100 100 95 90 100 96 23 5 44 77 5 5 5 5
72 88 56 46 97 100 100 100 97 100 100 100 100 99 100 66 99 74 99 98 17 100 100 79 51 33 14 5 5 5 5 5